Location: Bron Breck
(40.6655°N, 111.8083°W)
Time: 00:18:41
(UTC+00:00)

Envisat - Pass Details

Date: 09 March 2021
Orbit: 764 x 766 km, 98.1° (Epoch: 11 April)

Event Time Altitude Azimuth Distance (km) Brightness Sun altitude
Rises 12:57:16 0° 15° (NNE) 3,240 6.5 -10.5°
Reaches altitude 10° 12:59:36 10° 17° (NNE) 2,309 5.8 -10.0°
Maximum altitude 13:04:41 70° 102° (ESE) 813 3.4 -9.0°
Drops below altitude 10° 13:09:43 10° 186° (S) 2,292 5.4 -8.1°
Sets 13:12:01 0° 188° (S) 3,213 6.1 -7.7°
